FW5329 Weather Reports


time (UTC)temp
C
wind
direction
speed
KPH
gust
KPH
rain 1hr
cm
rain 24hr
cm
rain mn
cm
humidity
%
barometer
mb
20260506033035 15 131 4.8 6.4 0.00 0.00 0.00 73 1018.2
20260506031536 17 200 1.6 6.4 0.00 0.00 0.00 64 1017.9
20260506021537 20 322 1.6 4.8 0.00 0.00 0.00 56 1017.7
20260506020150 20 327 3.2 11.3 0.00 0.00 0.00 56 1017.6
20260506014609 21 347 4.8 14.5 0.00 0.00 0.00 54 1017.4
20260506013036 21 341 6.4 16.1 0.00 0.00 0.00 52 1017.3
20260506011535 22 347 4.8 11.3 0.00 0.00 0.00 51 1017.3
20260506010036 22 353 6.4 11.3 0.00 0.00 0.00 54 1017.4
20260506003036 22 343 4.8 14.5 0.00 0.00 0.00 54 1017.4
20260506001534 22 347 6.4 14.5 0.00 0.00 0.00 54 1017.4
20260506000034 22 333 6.4 12.9 0.00 0.00 0.00 53 1017.5
20260505234536 22 328 4.8 12.9 0.00 0.00 0.00 53 1017.6
20260505230038 22 299 4.8 12.9 0.00 0.00 0.00 53 1017.7
20260505224536 22 307 6.4 14.5 0.00 0.00 0.00 53 1017.7
20260505223036 22 284 6.4 14.5 0.00 0.00 0.00 53 1017.8
20260505221653 21 296 4.8 16.1 0.00 0.00 0.00 54 1017.8
20260505220036 22 322 6.4 14.5 0.00 0.00 0.00 54 1018.0
20260505214537 21 293 4.8 12.9 0.00 0.00 0.00 54 1018.1
20260505203035 20 334 6.4 16.1 0.00 0.00 0.00 57 1018.3
20260505201610 20 329 4.8 14.5 0.00 0.00 0.00 56 1018.4
20260505200038 20 291 4.8 11.3 0.00 0.00 0.00 57 1018.4
20260505193031 19 322 4.8 16.1 0.00 0.00 0.00 57 1018.5
20260505191537 19 308 4.8 14.5 0.00 0.00 0.00 57 1018.6
20260505190143 18 314 6.4 12.9 0.00 0.00 0.00 59 1018.6
20260505184535 18 355 4.8 19.3 0.00 0.00 0.00 59 1018.7
20260505180037 17 327 6.4 12.9 0.00 0.00 0.00 61 1018.6
20260505173035 17 338 6.4 12.9 0.00 0.00 0.00 63 1018.5
20260505171609 16 327 4.8 11.3 0.00 0.00 0.00 63 1018.5
20260505170036 16 312 4.8 14.5 0.00 0.00 0.00 65 1018.4
20260505164536 15 317 3.2 11.3 0.00 0.00 0.00 67 1018.3
20260505161530 14 349 6.4 11.3 0.00 0.00 0.00 70 1018.3
20260505151644 15 337 3.2 8.0 0.00 0.00 0.00 67 1017.9
20260505121534 9 93 8.0 11.3 0.00 0.00 0.00 85 1017.0
20260505120043 9 95 8.0 11.3 0.00 0.00 0.00 85 1017.0
20260505120036 9 96 8.0 12.9 0.00 0.00 0.00 85 1017.0
20260505114646 10 102 6.4 11.3 0.00 0.00 0.00 84 1017.0
20260505113037 10 98 6.4 11.3 0.00 0.00 0.00 83 1017.0
20260505100046 11 165 4.8 8.0 0.00 0.00 0.00 79 1016.7
20260505084537 10 105 6.4 9.7 0.00 0.00 0.00 79 1016.5
20260505080037 13 102 4.8 9.7 0.00 0.00 0.00 73 1016.3
20260505061536 15 221 3.2 16.1 0.00 0.00 0.00 71 1016.4
20260505060036 15 245 4.8 14.5 0.00 0.00 0.00 70 1016.4
20260505054536 15 261 4.8 14.5 0.00 0.00 0.00 69 1016.3
20260505053038 15 271 3.2 9.7 0.00 0.00 0.00 67 1016.3
20260505051536 15 273 3.2 11.3 0.00 0.00 0.00 65 1016.2
20260505041536 17 328 3.2 12.9 0.00 0.00 0.00 48 1015.4